Time,TemperatureF,DewpointF,PressureIn,WindDirection,WindDirectionDegrees,WindSpeedMPH,WindSpeedGustMPH,Humidity,HourlyPrecipIn,Conditions,Clouds,dailyrainin,SoftwareType,DateUTC
2013-05-08 00:02:00,61.0,54.0,-100.00,WNW,300,2.0,4.0,79,0.00,,,-99.99,,2013-05-08 04:02:00,
2013-05-08 00:13:00,60.0,54.0,-100.00,West,275,1.0,4.0,80,0.00,,,-99.99,,2013-05-08 04:13:00,
2013-05-08 00:23:00,60.0,54.0,-100.00,West,280,1.0,5.0,81,0.00,,,-99.99,,2013-05-08 04:23:00,
2013-05-08 00:33:00,60.0,54.0,-100.00,WNW,290,1.0,5.0,82,0.00,,,-99.99,,2013-05-08 04:33:00,
2013-05-08 00:43:00,59.0,54.0,-100.00,NW,310,1.0,1.0,84,0.00,,,-99.99,,2013-05-08 04:43:00,
2013-05-08 00:52:00,58.0,54.0,-100.00,South,190,1.0,2.0,86,0.00,,,-99.99,,2013-05-08 04:52:00,
2013-05-08 01:02:00,59.0,54.0,-100.00,South,170,1.0,3.0,84,0.00,,,-99.99,,2013-05-08 05:02:00,
2013-05-08 01:12:00,58.0,54.0,-100.00,West,275,1.0,3.0,86,0.00,,,-99.99,,2013-05-08 05:12:00,
2013-05-08 01:22:00,58.0,54.0,-100.00,NW,305,1.0,2.0,85,0.00,,,-99.99,,2013-05-08 05:22:00,
2013-05-08 01:32:00,58.0,54.0,-100.00,NW,305,0.0,2.0,87,0.00,,,-99.99,,2013-05-08 05:32:00,
2013-05-08 01:42:00,57.0,54.0,-100.00,SW,215,0.0,2.0,88,0.00,,,-99.99,,2013-05-08 05:42:00,
2013-05-08 01:52:00,57.0,54.0,-100.00,North,0,0.0,1.0,89,0.00,,,-99.99,,2013-05-08 05:52:00,
2013-05-08 02:02:00,58.0,54.0,-100.00,NNW,330,0.0,2.0,88,0.00,,,-99.99,,2013-05-08 06:02:00,
2013-05-08 02:12:00,57.0,54.0,-100.00,WNW,290,1.0,2.0,89,0.00,,,-99.99,,2013-05-08 06:12:00,
2013-05-08 02:21:00,56.0,54.0,-100.00,NNE,15,0.0,1.0,91,0.00,,,-99.99,,2013-05-08 06:21:00,
2013-05-08 02:32:00,56.0,54.0,-100.00,East,80,0.0,1.0,91,0.00,,,-99.99,,2013-05-08 06:32:00,
2013-05-08 02:42:00,56.0,53.0,-100.00,East,85,0.0,1.0,91,0.00,,,-99.99,,2013-05-08 06:42:00,
2013-05-08 02:52:00,56.0,53.0,-100.00,ESE,110,0.0,1.0,92,0.00,,,-99.99,,2013-05-08 06:52:00,
2013-05-08 03:02:00,55.0,54.0,-100.00,East,85,1.0,1.0,93,0.00,,,-99.99,,2013-05-08 07:02:00,
2013-05-08 03:11:00,55.0,53.0,-100.00,East,90,1.0,1.0,94,0.00,,,-99.99,,2013-05-08 07:11:00,
2013-05-08 03:21:00,55.0,53.0,-100.00,ENE,75,1.0,2.0,94,0.00,,,-99.99,,2013-05-08 07:21:00,
2013-05-08 03:32:00,55.0,54.0,-100.00,ENE,75,1.0,2.0,94,0.00,,,-99.99,,2013-05-08 07:32:00,
2013-05-08 03:42:00,55.0,53.0,-100.00,ENE,65,2.0,2.0,94,0.00,,,-99.99,,2013-05-08 07:42:00,
2013-05-08 03:52:00,55.0,53.0,-100.00,ESE,110,1.0,3.0,95,0.00,,,-99.99,,2013-05-08 07:52:00,
2013-05-08 04:02:00,55.0,53.0,-100.00,NE,55,2.0,2.0,95,0.00,,,-99.99,,2013-05-08 08:02:00,
2013-05-08 04:12:00,55.0,53.0,-100.00,ENE,65,1.0,2.0,95,0.00,,,-99.99,,2013-05-08 08:12:00,
2013-05-08 04:21:00,54.0,53.0,-100.00,ENE,75,1.0,2.0,95,0.00,,,-99.99,,2013-05-08 08:21:00,
2013-05-08 04:32:00,54.0,53.0,-100.00,ENE,70,1.0,2.0,95,0.00,,,-99.99,,2013-05-08 08:32:00,
2013-05-08 04:42:00,54.0,53.0,-100.00,East,85,1.0,2.0,96,0.00,,,-99.99,,2013-05-08 08:42:00,
2013-05-08 04:51:00,54.0,53.0,-100.00,ENE,75,1.0,1.0,96,0.00,,,-99.99,,2013-05-08 08:51:00,
2013-05-08 05:02:00,54.0,53.0,-100.00,ENE,70,2.0,2.0,96,0.00,,,-99.99,,2013-05-08 09:02:00,
2013-05-08 05:11:00,54.0,53.0,-100.00,ENE,75,2.0,3.0,97,0.00,,,-99.99,,2013-05-08 09:11:00,
2013-05-08 05:21:00,54.0,53.0,-100.00,ENE,65,2.0,4.0,97,0.00,,,-99.99,,2013-05-08 09:21:00,
2013-05-08 05:32:00,54.0,53.0,-100.00,ENE,70,3.0,4.0,97,0.00,,,-99.99,,2013-05-08 09:32:00,
2013-05-08 05:42:00,53.0,53.0,-100.00,ENE,65,3.0,4.0,97,0.00,,,-99.99,,2013-05-08 09:42:00,
2013-05-08 05:52:00,53.0,53.0,-100.00,ENE,60,2.0,4.0,97,0.00,,,-99.99,,2013-05-08 09:52:00,
2013-05-08 06:02:00,53.0,53.0,-100.00,ENE,65,2.0,4.0,98,0.00,,,-99.99,,2013-05-08 10:02:00,
2013-05-08 06:12:00,53.0,53.0,-100.00,East,80,2.0,3.0,98,0.00,,,-99.99,,2013-05-08 10:12:00,
2013-05-08 06:22:00,53.0,53.0,-100.00,ENE,65,2.0,3.0,98,0.00,,,-99.99,,2013-05-08 10:22:00,
2013-05-08 06:33:00,54.0,53.0,-100.00,ENE,70,3.0,4.0,97,0.00,,,-99.99,,2013-05-08 10:33:00,
2013-05-08 06:42:00,54.0,53.0,-100.00,ENE,65,4.0,5.0,97,0.00,,,-99.99,,2013-05-08 10:42:00,
2013-05-08 06:52:00,55.0,54.0,-100.00,NE,55,3.0,5.0,96,0.00,,,-99.99,,2013-05-08 10:52:00,
2013-05-08 07:02:00,56.0,54.0,-100.00,ENE,60,4.0,4.0,94,0.00,,,-99.99,,2013-05-08 11:02:00,
2013-05-08 07:11:00,57.0,55.0,-100.00,ENE,65,4.0,6.0,92,0.00,,,-99.99,,2013-05-08 11:11:00,
2013-05-08 07:22:00,58.0,55.0,-100.00,ENE,60,4.0,6.0,89,0.00,,,-99.99,,2013-05-08 11:22:00,
2013-05-08 07:32:00,58.0,55.0,-100.00,North,-999,-999.0,-999.0,88,0.00,,,-99.99,,2013-05-08 11:32:00,
2013-05-08 07:42:00,59.0,55.0,-100.00,ENE,60,5.0,6.0,86,0.00,,,-99.99,,2013-05-08 11:42:00,
2013-05-08 07:52:00,60.0,55.0,-100.00,ENE,60,3.0,6.0,84,0.00,,,-99.99,,2013-05-08 11:52:00,
2013-05-08 08:02:00,61.0,55.0,-100.00,East,80,2.0,5.0,82,0.00,,,-99.99,,2013-05-08 12:02:00,
2013-05-08 08:11:00,61.0,55.0,-100.00,ENE,65,2.0,4.0,80,0.00,,,-99.99,,2013-05-08 12:11:00,
2013-05-08 08:21:00,61.0,55.0,-100.00,NE,55,2.0,4.0,82,0.00,,,-99.99,,2013-05-08 12:21:00,
2013-05-08 08:32:00,64.0,56.0,-100.00,NE,50,3.0,7.0,76,0.00,,,-99.99,,2013-05-08 12:32:00,
2013-05-08 08:41:00,65.0,56.0,-100.00,NE,45,3.0,7.0,74,0.00,,,-99.99,,2013-05-08 12:41:00,
2013-05-08 08:51:00,65.0,57.0,-100.00,North,-999,-999.0,-999.0,73,0.00,,,-99.99,,2013-05-08 12:51:00,
2013-05-08 09:01:00,65.0,57.0,-100.00,NE,50,4.0,11.0,73,0.00,,,-99.99,,2013-05-08 13:01:00,
2013-05-08 09:11:00,66.0,56.0,-100.00,NE,45,3.0,9.0,72,0.00,,,-99.99,,2013-05-08 13:11:00,
2013-05-08 09:21:00,66.0,57.0,-100.00,NE,45,5.0,9.0,71,0.00,,,-99.99,,2013-05-08 13:21:00,
2013-05-08 09:32:00,66.0,56.0,-100.00,NE,40,4.0,9.0,71,0.00,,,-99.99,,2013-05-08 13:32:00,
2013-05-08 09:42:00,67.0,56.0,-100.00,ENE,60,4.0,9.0,70,0.00,,,-99.99,,2013-05-08 13:42:00,
2013-05-08 09:52:00,66.0,56.0,-100.00,NE,35,4.0,8.0,71,0.00,,,-99.99,,2013-05-08 13:52:00,
2013-05-08 10:02:00,66.0,57.0,-100.00,ENE,60,3.0,7.0,71,0.00,,,-99.99,,2013-05-08 14:02:00,
2013-05-08 10:11:00,66.0,57.0,-100.00,ENE,60,4.0,9.0,72,0.00,,,-99.99,,2013-05-08 14:11:00,
2013-05-08 10:21:00,66.0,57.0,-100.00,ENE,60,3.0,11.0,70,0.00,,,-99.99,,2013-05-08 14:21:00,
2013-05-08 10:32:00,67.0,57.0,-100.00,NE,55,4.0,9.0,69,0.00,,,-99.99,,2013-05-08 14:32:00,
2013-05-08 10:42:00,66.0,56.0,-100.00,NE,40,4.0,9.0,72,0.00,,,-99.99,,2013-05-08 14:42:00,
2013-05-08 10:52:00,63.0,58.0,-100.00,NE,55,3.0,10.0,84,0.00,,,-99.99,,2013-05-08 14:52:00,
2013-05-08 11:02:00,63.0,61.0,-100.00,NNE,25,2.0,10.0,92,0.00,,,-99.99,,2013-05-08 15:02:00,
2013-05-08 11:11:00,66.0,63.0,-100.00,NE,50,6.0,9.0,89,0.00,,,-99.99,,2013-05-08 15:11:00,
2013-05-08 11:21:00,67.0,60.0,-100.00,NNE,25,6.0,11.0,80,0.00,,,-99.99,,2013-05-08 15:21:00,
2013-05-08 11:33:00,66.0,60.0,-100.00,ENE,60,9.0,16.0,81,0.00,,,-99.99,,2013-05-08 15:33:00,
2013-05-08 11:42:00,68.0,60.0,-100.00,ENE,60,4.0,11.0,76,0.00,,,-99.99,,2013-05-08 15:42:00,
2013-05-08 11:52:00,67.0,59.0,-100.00,NE,55,4.0,14.0,76,0.00,,,-99.99,,2013-05-08 15:52:00,
2013-05-08 12:03:00,69.0,59.0,-100.00,NNE,30,3.0,13.0,69,0.00,,,-99.99,,2013-05-08 16:03:00,
2013-05-08 12:12:00,70.0,58.0,-100.00,NE,50,4.0,13.0,65,0.00,,,-99.99,,2013-05-08 16:12:00,
2013-05-08 12:23:00,69.0,57.0,-100.00,NE,55,6.0,11.0,66,0.00,,,-99.99,,2013-05-08 16:23:00,
2013-05-08 12:33:00,71.0,57.0,-100.00,NE,40,9.0,14.0,61,0.00,,,-99.99,,2013-05-08 16:33:00,
2013-05-08 12:42:00,71.0,56.0,-100.00,NE,55,7.0,12.0,58,0.00,,,-99.99,,2013-05-08 16:42:00,
2013-05-08 12:52:00,74.0,56.0,-100.00,NE,40,7.0,15.0,54,0.00,,,-99.99,,2013-05-08 16:52:00,
2013-05-08 13:02:00,71.0,55.0,-100.00,NE,45,6.0,16.0,58,0.00,,,-99.99,,2013-05-08 17:02:00,
2013-05-08 13:12:00,70.0,56.0,-100.00,NE,55,7.0,12.0,60,0.00,,,-99.99,,2013-05-08 17:12:00,
2013-05-08 13:22:00,70.0,56.0,-100.00,NE,55,6.0,18.0,61,0.00,,,-99.99,,2013-05-08 17:22:00,
2013-05-08 13:32:00,70.0,56.0,-100.00,NE,50,9.0,18.0,61,0.00,,,-99.99,,2013-05-08 17:32:00,
2013-05-08 13:41:00,70.0,56.0,-100.00,NE,50,9.0,18.0,61,0.00,,,-99.99,,2013-05-08 17:41:00,
2013-05-08 13:52:00,69.0,56.0,-100.00,NE,55,6.0,12.0,62,0.00,,,-99.99,,2013-05-08 17:52:00,
2013-05-08 14:02:00,65.0,59.0,-100.00,NE,50,9.0,18.0,80,0.01,,,-99.99,,2013-05-08 18:02:00,
2013-05-08 14:12:00,63.0,60.0,-100.00,NE,45,7.0,11.0,89,0.00,,,-99.99,,2013-05-08 18:12:00,
2013-05-08 14:21:00,64.0,60.0,-100.00,NE,55,9.0,13.0,86,0.00,,,-99.99,,2013-05-08 18:21:00,
2013-05-08 14:32:00,65.0,60.0,-100.00,NE,55,9.0,16.0,81,0.00,,,-99.99,,2013-05-08 18:32:00,
2013-05-08 14:42:00,66.0,59.0,-100.00,NE,50,7.0,16.0,78,0.00,,,-99.99,,2013-05-08 18:42:00,
2013-05-08 14:52:00,65.0,60.0,-100.00,ENE,60,9.0,17.0,82,0.00,,,-99.99,,2013-05-08 18:52:00,
2013-05-08 15:01:00,66.0,58.0,-100.00,NE,35,8.0,17.0,75,0.00,,,-99.99,,2013-05-08 19:01:00,
2013-05-08 15:11:00,67.0,58.0,-100.00,NE,40,7.0,13.0,72,0.00,,,-99.99,,2013-05-08 19:11:00,
2013-05-08 15:22:00,67.0,58.0,-100.00,NE,40,7.0,12.0,71,0.00,,,-99.99,,2013-05-08 19:22:00,
2013-05-08 15:32:00,67.0,57.0,-100.00,NE,50,11.0,16.0,72,0.00,,,-99.99,,2013-05-08 19:32:00,
2013-05-08 15:42:00,67.0,58.0,-100.00,NE,55,11.0,16.0,72,0.00,,,-99.99,,2013-05-08 19:42:00,
2013-05-08 15:52:00,67.0,58.0,-100.00,ENE,65,6.0,12.0,72,0.00,,,-99.99,,2013-05-08 19:52:00,
2013-05-08 16:02:00,67.0,58.0,-100.00,ENE,60,9.0,14.0,74,0.00,,,-99.99,,2013-05-08 20:02:00,
2013-05-08 16:11:00,66.0,58.0,-100.00,ENE,60,4.0,10.0,76,0.00,,,-99.99,,2013-05-08 20:11:00,
2013-05-08 16:22:00,65.0,59.0,-100.00,NNE,25,6.0,11.0,81,0.03,,,-99.99,,2013-05-08 20:22:00,
2013-05-08 16:32:00,64.0,60.0,-100.00,NE,45,6.0,13.0,86,0.03,,,-99.99,,2013-05-08 20:32:00,
2013-05-08 16:42:00,64.0,59.0,-100.00,NNE,30,6.0,13.0,85,0.00,,,-99.99,,2013-05-08 20:42:00,
2013-05-08 16:52:00,65.0,60.0,-100.00,NE,55,7.0,11.0,82,0.00,,,-99.99,,2013-05-08 20:52:00,
2013-05-08 17:01:00,63.0,60.0,-100.00,NE,50,7.0,12.0,90,0.04,,,-99.99,,2013-05-08 21:01:00,
2013-05-08 17:12:00,62.0,61.0,-100.00,NE,50,8.0,13.0,96,0.00,,,-99.99,,2013-05-08 21:12:00,
2013-05-08 17:21:00,62.0,61.0,-100.00,ENE,60,7.0,14.0,97,0.00,,,-99.99,,2013-05-08 21:21:00,
2013-05-08 17:33:00,62.0,61.0,-100.00,NE,55,7.0,10.0,98,0.00,,,-99.99,,2013-05-08 21:33:00,
2013-05-08 17:43:00,62.0,61.0,-100.00,ENE,60,6.0,9.0,98,0.00,,,-99.99,,2013-05-08 21:43:00,
2013-05-08 17:52:00,62.0,61.0,-100.00,NE,55,4.0,7.0,98,0.01,,,-99.99,,2013-05-08 21:52:00,
2013-05-08 18:03:00,61.0,61.0,-100.00,NE,55,6.0,9.0,98,0.03,,,-99.99,,2013-05-08 22:03:00,
2013-05-08 18:12:00,62.0,61.0,-100.00,NE,50,5.0,9.0,98,0.00,,,-99.99,,2013-05-08 22:12:00,
2013-05-08 18:22:00,62.0,61.0,-100.00,ENE,60,7.0,10.0,98,0.00,,,-99.99,,2013-05-08 22:22:00,
2013-05-08 18:33:00,61.0,60.0,-100.00,NE,50,7.0,10.0,97,0.00,,,-99.99,,2013-05-08 22:33:00,
2013-05-08 18:42:00,61.0,61.0,-100.00,NE,55,6.0,9.0,98,0.00,,,-99.99,,2013-05-08 22:42:00,
2013-05-08 18:52:00,61.0,61.0,-100.00,NE,55,6.0,9.0,98,0.03,,,-99.99,,2013-05-08 22:52:00,
2013-05-08 19:01:00,61.0,60.0,-100.00,NE,55,7.0,14.0,98,0.03,,,-99.99,,2013-05-08 23:01:00,
2013-05-08 19:11:00,60.0,60.0,-100.00,NE,50,7.0,14.0,98,0.00,,,-99.99,,2013-05-08 23:11:00,
2013-05-08 19:22:00,61.0,60.0,-100.00,NE,50,6.0,12.0,99,0.00,,,-99.99,,2013-05-08 23:22:00,
2013-05-08 19:32:00,60.0,60.0,-100.00,ENE,60,9.0,13.0,99,0.00,,,-99.99,,2013-05-08 23:32:00,
2013-05-08 19:42:00,60.0,60.0,-100.00,NE,45,6.0,11.0,99,0.00,,,-99.99,,2013-05-08 23:42:00,
2013-05-08 19:52:00,60.0,60.0,-100.00,NE,55,7.0,12.0,99,0.00,,,-99.99,,2013-05-08 23:52:00,
2013-05-08 20:02:00,60.0,60.0,-100.00,ENE,65,6.0,9.0,99,0.00,,,-99.99,,2013-05-09 00:02:00,
2013-05-08 20:12:00,60.0,60.0,-100.00,NE,50,6.0,9.0,99,0.00,,,-99.99,,2013-05-09 00:12:00,
2013-05-08 20:21:00,60.0,60.0,-100.00,NE,55,6.0,8.0,100,0.00,,,-99.99,,2013-05-09 00:21:00,
2013-05-08 20:42:00,60.0,60.0,-100.00,NE,55,5.0,8.0,100,0.00,,,-99.99,,2013-05-09 00:42:00,
2013-05-08 21:01:00,60.0,60.0,-100.00,ENE,60,6.0,7.0,100,0.00,,,-99.99,,2013-05-09 01:01:00,
2013-05-08 21:12:00,60.0,60.0,-100.00,NE,50,4.0,8.0,100,0.00,,,-99.99,,2013-05-09 01:12:00,
2013-05-08 21:22:00,60.0,60.0,-100.00,NE,50,3.0,7.0,100,0.00,,,-99.99,,2013-05-09 01:22:00,
2013-05-08 21:32:00,60.0,60.0,-100.00,NE,40,3.0,7.0,100,0.03,,,-99.99,,2013-05-09 01:32:00,
2013-05-08 21:42:00,60.0,60.0,-100.00,NE,55,4.0,6.0,100,0.00,,,-99.99,,2013-05-09 01:42:00,